Regional Weather Roundup
Issued by NWS

Home | Current Version | Previous Version | Graphics & Text | Print | Product List | Glossary Off
Versions: 1 2 3 4 5 6 7 8 9 10 11 12 13 14 15 16 17 18 19 20 21 22 23 24 25 26 27 28 29 30 31 32 33 34 35 36 37 38 39 40 41 42 43 44 45 46 47 48 49 50

266
ASUS43 KTOP 182059
RWRKS

WEATHER ROUNDUP FOR KANSAS
NATIONAL WEATHER SERVICE GOODLAND KS
300 PM CST SAT NOV 18 2017

NOTE:  "FAIR" INDICATES FEW OR NO CLOUDS BELOW 12,000 FEET WITH NO
SIGNIFICANT WEATHER AND/OR OBSTRUCTIONS TO VISIBILITY.

KSZ001>006-013>018-027>032-041>047-182200-
NORTHWEST KANSAS

CITY           SKY/WX    TMP DP  RH WIND       PRES   REMARKS
GOODLAND       SUNNY     46  15  28 NW22G37   30.20F
HAYS           SUNNY     53  20  27 N22G31    30.15S
HILL CITY      SUNNY     51  22  31 NW22G33   30.18S
RUSSELL        LGT RAIN  54  21  27 NW28G37   30.13R
$$

KSZ061>065-074>080-084>089-182200-
SOUTHWEST KANSAS

CITY           SKY/WX    TMP DP  RH WIND       PRES   REMARKS
DODGE CITY     SUNNY     52  19  27 NW18G35   30.19S
GARDEN CITY    SUNNY     51  15  23 N23G33    30.21S
GREAT BEND     MOSUNNY   53  23  31 NW26G33   30.14S
LIBERAL        SUNNY     52  16  24 N21G28    30.22S
$$

KSZ066>073-081>083-090>101-182200-
SOUTHEAST KANSAS

CITY           SKY/WX    TMP DP  RH WIND       PRES   REMARKS
CHANUTE        SUNNY     53  36  52 NW24G30   30.04R
COFFEYVILLE    SUNNY     55  34  45 NW24G32   30.05R
HUTCHINSON     SUNNY     54  27  35 N25G36    30.11R
MEDICINE LODGE   N/A     56  25  30 N23G35    30.15R
NEWTON         CLOUDY    55  27  34 N26G33    30.09R
PARSONS        SUNNY     55  35  47 NW16G36   30.05R
WICHITA INTL   MOSUNNY   56  28  34 N26G37    30.10R
WICHITA JABRA  MOSUNNY   53  29  39 N23G39    30.09R
WICHITA MCCONL PTSUNNY   56  27  33 N24G35    30.09R
WINFIELD       MOSUNNY   56  33  42 N21G31    30.11R
$$

KSZ007>012-019>026-033>040-048>060-102>105-182200-
NORTHEAST KANSAS

CITY           SKY/WX    TMP DP  RH WIND       PRES   REMARKS
CONCORDIA      MOSUNNY   52  27  38 NW25G31   30.09R
EMPORIA        MOSUNNY   54  32  43 N23G30    30.05R
LAWRENCE       MOSUNNY   53  35  50 NW22G31   30.01R
MANHATTAN      MOSUNNY   55  27  34 N10G28    30.07R
OLATHE IND     SUNNY     50  34  54 NW18G35   30.00R
OLATHE EXE     LGT RAIN  49  31  49 NW17G32   29.99R
SALINA         SUNNY     56  25  30 NW30G40   30.09R
TOPEKA BILLARD PTSUNNY   54  33  45 N20G28    30.02R
TOPEKA FORBES  PTSUNNY   55  34  45 N20G30    30.02R
$$




USA.gov is the U.S. government's official web portal to all federal, state and local government web resources and services.